TimePDT,TemperatureF,Dew PointF,Humidity,Sea Level PressureIn,VisibilityMPH,Wind Direction,Wind SpeedMPH,Gust SpeedMPH,PrecipitationIn,Events,Conditions,WindDirDegrees,DateUTC
12:56 AM,43.0,42.1,97,29.90,0.2,SW,8.1,-,N/A,Fog,Fog,220,2013-05-28 07:56:00
1:05 AM,42.8,42.8,100,29.91,0.5,SW,5.8,-,N/A,Fog,Fog,220,2013-05-28 08:05:00
1:21 AM,42.8,42.8,100,29.92,0.2,SW,5.8,-,N/A,Fog,Fog,230,2013-05-28 08:21:00
1:32 AM,42.8,42.8,100,29.91,0.5,SW,8.1,-,N/A,Fog,Fog,220,2013-05-28 08:32:00
1:36 AM,42.8,42.8,100,29.91,1.0,SW,8.1,-,N/A,,Overcast,220,2013-05-28 08:36:00
1:40 AM,42.8,41.0,93,29.91,1.8,SW,8.1,-,N/A,,Overcast,230,2013-05-28 08:40:00
1:42 AM,42.8,41.0,93,29.91,3.0,SW,9.2,-,N/A,,Overcast,230,2013-05-28 08:42:00
1:49 AM,42.8,41.0,93,29.91,10.0,WSW,5.8,18.4,N/A,,Overcast,240,2013-05-28 08:49:00
1:56 AM,42.1,41.0,96,29.90,7.0,SW,9.2,-,N/A,,Overcast,230,2013-05-28 08:56:00
2:07 AM,42.8,41.0,93,29.91,10.0,WSW,9.2,-,N/A,,Overcast,240,2013-05-28 09:07:00
2:15 AM,42.8,41.0,93,29.91,10.0,WSW,5.8,-,N/A,,Overcast,250,2013-05-28 09:15:00
2:39 AM,42.8,41.0,93,29.92,1.5,SW,5.8,-,N/A,,Overcast,230,2013-05-28 09:39:00
2:41 AM,42.8,42.8,100,29.92,0.8,WSW,6.9,-,N/A,,Overcast,240,2013-05-28 09:41:00
2:56 AM,43.0,42.1,97,29.90,0.5,SW,8.1,-,N/A,Fog,Fog,220,2013-05-28 09:56:00
3:07 AM,42.8,41.0,93,29.91,1.5,SW,5.8,-,N/A,,Overcast,230,2013-05-28 10:07:00
3:12 AM,42.8,41.0,93,29.91,0.8,Variable,5.8,-,N/A,,Overcast,0,2013-05-28 10:12:00
3:29 AM,42.8,42.8,100,29.91,0.2,SW,8.1,-,N/A,Fog,Fog,220,2013-05-28 10:29:00
3:36 AM,42.8,42.8,100,29.91,0.2,SW,8.1,-,N/A,Fog,Fog,230,2013-05-28 10:36:00
3:51 AM,42.8,42.8,100,29.92,0.5,Variable,6.9,-,N/A,Fog,Fog,0,2013-05-28 10:51:00
3:56 AM,43.0,42.1,97,29.90,0.2,SW,8.1,-,N/A,Fog,Fog,220,2013-05-28 10:56:00
4:19 AM,42.8,41.0,93,29.92,0.8,SW,9.2,-,N/A,,Overcast,220,2013-05-28 11:19:00
4:24 AM,42.8,41.0,93,29.92,1.0,SSW,8.1,16.1,N/A,,Overcast,210,2013-05-28 11:24:00
4:33 AM,42.8,41.0,93,29.91,0.5,SW,10.4,-,N/A,Fog,Fog,220,2013-05-28 11:33:00
4:47 AM,42.8,41.0,93,29.92,0.2,SSW,9.2,-,N/A,Fog,Fog,210,2013-05-28 11:47:00
4:56 AM,42.1,41.0,96,29.90,0.2,SW,10.4,-,N/A,Fog,Fog,220,2013-05-28 11:56:00
5:56 AM,42.1,41.0,96,29.91,0.2,SSW,8.1,-,N/A,Fog,Fog,210,2013-05-28 12:56:00
6:56 AM,42.1,41.0,96,29.93,0.2,SSW,9.2,-,N/A,Fog,Fog,210,2013-05-28 13:56:00
7:56 AM,43.0,42.1,97,29.94,0.2,SSW,8.1,-,N/A,Fog,Fog,210,2013-05-28 14:56:00
8:56 AM,44.1,43.0,96,29.95,0.2,South,8.1,-,N/A,Fog,Fog,190,2013-05-28 15:56:00
9:26 AM,44.6,42.8,93,29.96,1.0,Variable,3.5,-,N/A,,Overcast,0,2013-05-28 16:26:00
9:29 AM,44.6,42.8,93,29.96,2.5,South,5.8,-,N/A,,Overcast,180,2013-05-28 16:29:00
9:36 AM,44.6,44.6,100,29.96,9.0,South,8.1,-,N/A,,Overcast,190,2013-05-28 16:36:00
9:46 AM,44.6,42.8,93,29.97,10.0,South,8.1,-,N/A,,Overcast,190,2013-05-28 16:46:00
9:53 AM,44.6,42.8,93,29.97,10.0,Calm,Calm,-,N/A,,Overcast,0,2013-05-28 16:53:00
9:56 AM,44.1,43.0,96,29.96,9.0,SSE,8.1,-,N/A,,Overcast,150,2013-05-28 16:56:00
10:11 AM,44.6,42.8,93,29.97,10.0,South,9.2,-,N/A,,Overcast,170,2013-05-28 17:11:00
10:20 AM,42.8,41.0,93,29.97,10.0,SSE,8.1,-,N/A,,Overcast,160,2013-05-28 17:20:00
10:56 AM,48.0,43.0,83,29.96,10.0,Variable,5.8,-,N/A,,Overcast,0,2013-05-28 17:56:00
11:14 AM,51.8,44.6,76,29.99,10.0,SSW,5.8,-,N/A,,Mostly Cloudy,200,2013-05-28 18:14:00
11:38 AM,51.8,42.8,71,29.98,10.0,South,6.9,-,N/A,,Scattered Clouds,190,2013-05-28 18:38:00
11:46 AM,50.0,42.8,76,29.98,10.0,Variable,6.9,-,N/A,,Mostly Cloudy,0,2013-05-28 18:46:00
11:56 AM,51.1,42.1,71,29.95,10.0,South,8.1,-,N/A,,Mostly Cloudy,170,2013-05-28 18:56:00
12:56 PM,53.1,42.1,66,29.95,10.0,South,8.1,-,N/A,,Mostly Cloudy,180,2013-05-28 19:56:00
1:56 PM,55.9,43.0,62,29.94,10.0,SSW,6.9,-,N/A,,Mostly Cloudy,200,2013-05-28 20:56:00
2:56 PM,59.0,44.1,58,29.92,10.0,Variable,3.5,-,N/A,,Mostly Cloudy,0,2013-05-28 21:56:00
3:56 PM,59.0,43.0,55,29.91,10.0,Variable,3.5,-,N/A,,Partly Cloudy,0,2013-05-28 22:56:00
4:56 PM,59.0,39.9,49,29.90,10.0,WSW,6.9,-,N/A,,Scattered Clouds,250,2013-05-28 23:56:00
5:56 PM,54.0,41.0,62,29.91,10.0,Variable,4.6,-,N/A,,Mostly Cloudy,0,2013-05-29 00:56:00
6:56 PM,51.1,39.0,63,29.89,10.0,Variable,6.9,-,N/A,,Overcast,0,2013-05-29 01:56:00
7:56 PM,48.9,37.9,66,29.88,10.0,SW,6.9,-,N/A,,Overcast,220,2013-05-29 02:56:00
8:56 PM,46.0,39.0,76,29.84,10.0,SSW,13.8,24.2,0.01,,Overcast,200,2013-05-29 03:56:00
9:56 PM,45.0,37.9,76,29.82,10.0,South,17.3,24.2,0.01,,Overcast,190,2013-05-29 04:56:00
10:56 PM,44.1,39.9,85,29.79,8.0,South,19.6,27.6,0.01,Rain,Light Rain,190,2013-05-29 05:56:00
11:22 PM,44.6,37.4,76,29.82,10.0,SSW,18.4,28.8,0.00,,Overcast,200,2013-05-29 06:22:00
11:56 PM,44.1,37.9,79,29.78,10.0,SSW,17.3,31.1,0.00,,Overcast,200,2013-05-29 06:56:00